Weather in Davydovo

Russia / Yaroslavl Oblast     57°18′58″N   38°50′41″E
temp.,
°C
wind,
m/s
gust,
m/s
humid.,
%
clouds,
%
prec.,
mm/h
press.,
hPa
HPBL,
m
24 july, sat
sat2400:00+10nw229184 0.1 100843
03:00+10nw2490100 0.1 101088
06:00+11nnw2789100 0.1 1011255
09:00+16n24555 0.1 10121125
12:00+18n3439100 0.1 10132283
15:00+18nnw343994 0.1 10151432
18:00+19wnw234018 0.0 10151625
21:00+15sw2353100 0.0 101769
25 july, sun
sun2500:00+14sw375874 0.0 1018184
03:00+12sw2664100 0.0 1019123
06:00+12sw256890 0.0 1020133
09:00+18sw365069 0.0 1020477
12:00+22w3433100 0.0 10202711
15:00+23w243190 0.0 10202616
18:00+22nw134351 0.0 10201287
21:00+15nne1165100 0.0 102211
26 july, mon
mon2600:00+16wsw2257100 0.0 102327
03:00+16wsw255892 0.0 1023108
06:00+15wsw256755 0.0 1023135
09:00+21wsw344710 0.0 1023593
12:00+21wsw344825 0.0 1024562
15:00+22wsw3649100 0.0 1022519
18:00+22wsw36569 0.0 1022416
21:00+19sw266746 0.0 1022146
27 july, tue
tue2700:00+15wsw37809 0.0 1023117
03:00+15w26876 0.0 102395
06:00+16w258314 0.0 1023141
09:00+21w236164 0.0 1022329
12:00+27wnw233751 0.0 10222122
15:00+23sw225197 0.0 1021233
18:00+24s235013 0.0 1020150
21:00+19wsw387110 0.0 1020162
28 july, wed
wed2800:00+17w24775 0.0 102067
03:00+15wsw25813 0.0 101983
06:00+17sw25815 0.0 1019130
09:00+24wsw355613 0.0 1017591
12:00+28wsw454051 0.0 10152351
15:00+24ssw2554100 0.0 1014177
18:00+24se1157100 0.0 101295
21:00+20ssw2266100 0.0 101116